Погода в Орловском

Россия / Забайкальский край     51°02′13″N   114°50′59″E
темп.,
°C
ветер,
м/с
пор.,
м/с
влажн.,
%
обл.,
%
осадки,
мм/ч
давл.,
гПа
погр.,
м
11 августа, чт
чт1100:00+15в1264100 0.0 100519
03:00+14зсз1166100 0.0 100611
06:00+14ссз226895 0.0 100731
09:00+16ссз226296 0.0 1008416
12:00+19с335174 0.0 1007984
15:00+20ссз4546100 0.0 10071392
18:00+22сз034282 0.0 10051794
21:00+16ююв336114 0.0 100623
12 августа, пт
пт1200:00+16ююз236114 0.0 100630
03:00+13ююз226654 0.0 100612
06:00+11зсз228024 0.4 100620
09:00+16зсз596697 0.8 1006574
12:00+20сз574830 0.0 10051836
15:00+20зсз674746 0.0 10041362
18:00+22ссз574198 0.0 10031569
21:00+17зсз355799 0.0 1005135
13 августа, сб
сб1300:00+13сз22700 0.0 100617
03:00+12сз22735 0.0 100616
06:00+11сз11775 0.0 100710
09:00+17сз115653 0.0 1007240
12:00+22ююз2242100 0.0 10061359
15:00+25зюз1331100 0.0 10042683
18:00+25ююз533114 0.0 10032329
21:00+18ююв2244100 0.0 100411
14 августа, вс
вс1400:00+16вюв2252100 0.0 100416
03:00+16юв2255100 0.0 100319
06:00+16вюв1154100 0.0 100212
09:00+16зсз2362100 0.1 1003163
12:00+15сз2480100 0.5 1003314
15:00+14ссз4689100 2.0 1004300
18:00+17ссз4577100 0.3 1003259
21:00+13сз479175 0.4 1004170
15 августа, пн
пн1500:00+12сз349116 0.0 100456
03:00+11сз34915 0.0 100556
06:00+11сз33905 0.0 100537
09:00+16сз34711 0.0 1006258
12:00+22сз33470 0.0 10051216
15:00+25з33373 0.0 10042251
18:00+25зюз23341 0.0 10032289
21:00+18юз36590 0.0 100366